Havre, MT

1:27 AM MDT on June 25, 2017 (GMT -0600)
Havre City-County

Weather History for KHVR - June, 2014

Change the Weather History Date:

Monday, June 9, 2014

  Actual Average Record
Temperature  
Mean Temperature 60 °F 61 °F  
Max Temperature 83 °F 74 °F 96 °F (1956)
Min Temperature 37 °F 48 °F 34 °F (1998)
Degree Days  
Heating Degree Days 5 5  
Month to date heating degree days 65 56  
Since 1 June heating degree days 65 56  
Since 1 July heating degree days 8445 8144  
Cooling Degree Days 0 1  
Month to date cooling degree days 0 9  
Year to date cooling degree days 7 20  
Since 1 June cooling degree days 0 9  
Growing Degree Days 10 (Base 50)    
Moisture  
Dew Point 38 °F    
Average Humidity 53    
Maximum Humidity 85    
Minimum Humidity 21    
Precipitation  
Precipitation T in 0.08 in 1.00 in (1880)
Month to date precipitation 0.15 0.68  
Year to date precipitation 3.84 4.41  
Snow  
Snow 0.00 in 0.10 in 0.00 in (1999)
Month to date snowfall 0.0 0.4  
Since 1 June snowfall 0.0 0.4  
Since 1 July snowfall 44.4 39.4  
Snow Depth 0.00 in    
Sea Level Pressure  
Sea Level Pressure 29.77 in    
Wind  
Wind Speed 13 mph (NW)    
Max Wind Speed 37 mph    
Max Gust Speed 45 mph    
Visibility 10 miles    
Events Rain , Thunderstorm    
T = Trace of Precipitation, MM = Missing Value Source: NWS Daily Summary

Daily Weather History Graph

Daily Weather History Graph

Search for Another Location

Airport or City:

Trip Planner

Search our weather history database for the weather conditions in past years. The results will help you decide how hot, cold, wet, or windy it might be!

Date:

Astronomy

Jun. 09, 2014 Rise Set
Actual Time 5:17 AM MDT 9:19 PM MDT
Civil Twilight 4:35 AM MDT 10:01 PM MDT
Nautical Twilight 3:37 AM MDT 10:59 PM MDT
Astronomical Twilight 1:57 AM MDT 12:42 AM MDT
Moon 5:28 PM MDT (6/9) 3:05 AM MDT (6/9)
Length of Visible Light 17h 25m
Length of Day
16h 02m
Waxing Gibbous, 85% of the Moon is Illuminated
Jun 9
Waxing Gibbous
Jun 12
Full
Jun 19
Last Quarter
Jun 27
New
Jul 5
First Quarter

Hourly Weather History & Observations

Time (MDT) Temp. Windchill Dew Point Humidity Pressure Visibility Wind Dir Wind Speed Gust Speed Precip Events Conditions
12:53 AM 50.0 °F - 30.9 °F 48% 29.90 in 10.0 mi East 4.6 mph - N/A   Clear
1:53 AM 48.0 °F - 32.0 °F 54% 29.88 in 10.0 mi ENE 6.9 mph - N/A   Clear
2:53 AM 45.0 °F 43.5 °F 35.1 °F 68% 29.88 in 10.0 mi East 3.5 mph - N/A   Clear
3:53 AM 44.1 °F 40.1 °F 35.1 °F 71% 29.85 in 10.0 mi ENE 6.9 mph - N/A   Clear
4:53 AM 43.0 °F - 36.0 °F 76% 29.82 in 10.0 mi Calm Calm - N/A   Clear
5:53 AM 37.9 °F 35.5 °F 33.1 °F 83% 29.83 in 10.0 mi West 3.5 mph - N/A   Clear
6:53 AM 46.0 °F - 35.1 °F 66% 29.81 in 10.0 mi Calm Calm - N/A   Clear
7:53 AM 55.9 °F - 37.9 °F 51% 29.79 in 10.0 mi Variable 3.5 mph - N/A   Clear
8:53 AM 66.2 °F - 37.4 °F 35% 29.79 in 10.0 mi SW 16.1 mph - N/A   Clear
9:53 AM 72.0 °F - 39.0 °F 30% 29.75 in 10.0 mi SW 17.3 mph 24.2 mph N/A   Clear
10:53 AM 75.9 °F - 37.0 °F 24% 29.72 in 10.0 mi WSW 18.4 mph 29.9 mph N/A   Clear
11:53 AM 78.1 °F - 36.0 °F 22% 29.70 in 10.0 mi WSW 23.0 mph 31.1 mph N/A   Clear
1:53 PM 78.8 °F - 37.4 °F 23% 29.71 in 10.0 mi West 25.3 mph 34.5 mph N/A   Scattered Clouds
2:53 PM 81.0 °F - 37.0 °F 21% 29.67 in 10.0 mi WSW 24.2 mph 32.2 mph N/A   Clear
3:53 PM 70.0 °F - 44.1 °F 39% 29.68 in 10.0 mi West 16.1 mph 28.8 mph 0.00 in Rain Rain
3:56 PM 69.1 °F - 46.0 °F 44% 29.69 in 10.0 mi WNW 15.0 mph 28.8 mph 0.00 in Rain , Thunderstorm Light Rain
4:23 PM 79.0 °F - 43.0 °F 28% 29.68 in 10.0 mi West 8.1 mph - 0.00 in   Partly Cloudy
4:53 PM 81.0 °F - 34.0 °F 18% 29.65 in 10.0 mi West 24.2 mph 32.2 mph 0.00 in   Clear
5:53 PM 77.0 °F - 41.0 °F 28% 29.68 in 10.0 mi North 24.2 mph 32.2 mph N/A   Partly Cloudy
6:00 PM 73.9 °F - 41.0 °F 30% 29.70 in 10.0 mi North 23.0 mph 36.8 mph N/A   Partly Cloudy
6:53 PM 66.0 °F - 42.1 °F 42% 29.76 in 10.0 mi NNE 21.9 mph 29.9 mph N/A   Clear
7:53 PM 64.9 °F - 43.0 °F 45% 29.81 in 10.0 mi NE 15.0 mph - N/A   Mostly Cloudy
8:53 PM 60.1 °F - 43.0 °F 53% 29.82 in 10.0 mi East 8.1 mph - N/A   Clear
9:53 PM 57.0 °F - 42.1 °F 57% 29.82 in 10.0 mi East 6.9 mph - N/A   Clear
10:53 PM 54.0 °F - 41.0 °F 62% 29.83 in 10.0 mi ENE 5.8 mph - N/A   Clear
11:53 PM 48.9 °F - 39.9 °F 71% 29.85 in 10.0 mi Calm Calm - N/A   Clear